KF5WOE-13 Weather Reports


Display with metric or nautical units.
time (UTC)temp
F
wind
direction
speed
MPH
gust
MPH
rain 1hr
in
rain 24hr
in
rain mn
in
humidity
%
barometer
mb
20260507101420 140 293 4.0 6.0 0.00 0.00 0.00 1019.7
20260507100917 140 308 2.0 3.0 0.00 0.00 0.00 1019.8
20260507100415 140 296 3.0 3.0 0.00 0.00 0.00 1019.9
20260507095913 140 290 0.0 0.0 0.00 0.00 0.00 1019.5
20260507095409 140 308 0.0 0.0 0.00 0.00 0.00 1019.4
20260507094907 140 302 1.0 1.0 0.00 0.00 0.00 1019.5
20260507094403 140 308 0.0 0.0 0.00 0.00 0.00 1019.3
20260507093900 140 304 0.0 0.0 0.00 0.00 0.00 1019.2
20260507093358 140 310 0.0 0.0 0.00 0.00 0.00 1019.1
20260507092856 140 298 0.0 0.0 0.00 0.00 0.00 1019.1
20260507092352 140 290 2.0 2.0 0.00 0.00 0.00 1019.1
20260507091848 140 317 0.0 0.0 0.00 0.00 0.00 1019.0
20260507091345 140 310 3.0 3.0 0.00 0.00 0.00 1018.9
20260507090841 140 313 0.0 0.0 0.00 0.00 0.00 1018.8
20260507090337 140 300 0.0 0.0 0.00 0.00 0.00 1018.7
20260507085834 140 318 0.0 0.0 0.00 0.00 0.00 1018.6
20260507085331 140 302 0.0 0.0 0.00 0.00 0.00 1018.8
20260507084828 140 326 0.0 0.0 0.00 0.00 0.00 1018.5
20260507084325 140 337 0.0 0.0 0.00 0.00 0.00 1018.6
20260507083822 140 339 5.0 6.0 0.00 0.00 0.00 1018.4
20260507083319 140 10 5.0 8.0 0.00 0.00 0.00 1018.5
20260507082815 140 14 5.0 7.0 0.00 0.00 0.00 1018.4
20260507082310 140 13 4.0 5.0 0.00 0.00 0.00 1018.2
20260507081808 140 358 5.0 6.0 0.00 0.00 0.00 1018.3
20260507081303 140 30 6.0 7.0 0.00 0.00 0.00 1018.1
20260507080801 140 24 11.0 13.0 0.00 0.00 0.00 1018.1
20260507080257 140 11 5.0 6.0 0.00 0.00 0.00 1017.9
20260507075752 140 30 3.0 3.0 0.00 0.00 0.00 1018.3
20260507075248 140 30 3.0 3.0 0.00 0.00 0.00 1018.2
20260507074745 140 353 5.0 6.0 0.00 0.00 0.00 1017.9
20260507074243 140 18 5.0 7.0 0.00 0.00 0.00 1018.2
20260507073739 140 10 6.0 9.0 0.00 0.00 0.00 1018.1
20260507073236 140 7 11.0 14.0 0.00 0.00 0.00 1017.8
20260507072734 140 15 5.0 6.0 0.00 0.00 0.00 1017.9
20260507072231 140 17 9.0 13.0 0.00 0.00 0.00 1018.0
20260507071729 140 9 7.0 8.0 0.00 0.00 0.00 1018.1
20260507071225 140 9 6.0 7.0 0.00 0.00 0.00 1018.5
20260507070722 140 11 7.0 9.0 0.00 0.00 0.00 1017.9
20260507070219 140 7 7.0 8.0 0.00 0.00 0.00 1018.0
20260507065715 140 20 7.0 9.0 0.00 0.00 0.00 1018.0
20260507065212 140 11 7.0 9.0 0.00 0.00 0.00 1017.9
20260507064709 140 1 6.0 7.0 0.00 0.00 0.00 1017.5
20260507064209 140 7 5.0 6.0 0.00 0.00 0.00 1017.4
20260507063705 140 1 9.0 11.0 0.00 0.00 0.00 1017.5
20260507063202 140 15 7.0 8.0 0.00 0.00 0.00 1017.4
20260507062659 140 8 4.0 6.0 0.00 0.00 0.00 1017.4
20260507062156 140 30 6.0 7.0 0.00 0.00 0.00 1017.4
20260507061654 140 30 4.0 10.0 0.00 0.00 0.00 1017.1
20260507061152 140 2 9.0 10.0 0.00 0.00 0.00 1017.3
20260507060650 140 7 3.0 3.0 0.00 0.00 0.00 1017.1
20260507060146 140 8 9.0 9.0 0.00 0.00 0.00 1017.0
20260507055642 140 25 5.0 8.0 0.00 0.00 0.00 1017.2
20260507055138 140 14 6.0 7.0 0.00 0.00 0.00 1016.9
20260507054634 140 10 3.0 6.0 0.00 0.00 0.00 1017.0
20260507054131 140 48 5.0 7.0 0.00 0.00 0.00 1017.0
20260507053629 140 31 5.0 6.0 0.00 0.00 0.00 1017.0
20260507053127 140 52 7.0 9.0 0.00 0.00 0.00 1017.2
20260507052625 140 55 6.0 7.0 0.00 0.00 0.00 1017.2
20260507052121 140 43 4.0 7.0 0.00 0.00 0.00 1017.2
20260507051619 140 39 6.0 8.0 0.00 0.00 0.00 1017.2
20260507051115 140 59 6.0 8.0 0.00 0.00 0.00 1017.2
20260507050612 140 359 7.0 7.0 0.00 0.00 0.00 1017.1
20260507050109 140 4 6.0 7.0 0.00 0.00 0.00 1016.9
20260507045605 140 26 7.0 10.0 0.00 0.00 0.00 1017.0
20260507045102 140 34 3.0 5.0 0.00 0.00 0.00 1017.1
20260507044559 140 20 5.0 7.0 0.00 0.00 0.00 1017.2
20260507044056 140 40 3.0 3.0 0.00 0.00 0.00 1017.1
20260507043552 140 52 6.0 8.0 0.00 0.00 0.00 1016.9
20260507043049 140 22 5.0 7.0 0.00 0.00 0.00 1017.0
20260507042545 140 38 2.0 5.0 0.00 0.00 0.00 1016.9
20260507042041 140 41 6.0 10.0 0.00 0.00 0.00 1016.6
20260507041538 140 18 5.0 6.0 0.00 0.00 0.00 1016.9
20260507041035 140 35 4.0 8.0 0.00 0.00 0.00 1016.9
20260507040531 140 36 7.0 9.0 0.00 0.00 0.00 1017.1
20260507040027 140 26 7.0 9.0 0.00 0.00 0.00 1017.0
20260507035523 140 19 7.0 10.0 0.00 0.02 0.02 1017.2
20260507035020 140 43 5.0 7.0 0.00 0.02 0.02 1017.0
20260507034517 140 12 11.0 13.0 0.00 0.02 0.02 1017.0
20260507034015 140 40 5.0 8.0 0.00 0.02 0.02 1016.9
20260507033513 140 4 9.0 13.0 0.00 0.02 0.02 1017.0
20260507033010 140 44 14.0 15.0 0.00 0.02 0.02 1017.0
20260507032506 140 22 6.0 9.0 0.00 0.02 0.02 1016.9
20260507032003 140 19 7.0 9.0 0.00 0.02 0.02 1016.8
20260507031459 140 52 0.0 0.0 0.00 0.02 0.02 1016.7
20260507030956 140 15 7.0 10.0 0.00 0.02 0.02 1016.8
20260507030453 140 23 11.0 15.0 0.00 0.02 0.02 1016.7
20260507025950 140 3 13.0 16.0 0.00 0.02 0.02 1016.8
20260507025447 140 40 7.0 9.0 0.00 0.02 0.02 1016.7
20260507024945 140 37 9.0 11.0 0.00 0.02 0.02 1016.7
20260507024442 140 14 7.0 11.0 0.00 0.02 0.02 1016.8
20260507023938 140 359 6.0 8.0 0.00 0.02 0.02 1016.5
20260507023435 140 32 8.0 10.0 0.00 0.02 0.02 1016.3
20260507022932 140 4 7.0 8.0 0.00 0.02 0.02 1016.2
20260507022429 140 18 8.0 8.0 0.00 0.02 0.02 1016.3
20260507021925 140 358 8.0 11.0 0.00 0.02 0.02 1016.4
20260507021420 140 18 7.0 8.0 0.00 0.02 0.02 1016.2
20260507020918 140 10 7.0 8.0 0.00 0.02 0.02 1016.0
20260507020414 140 358 7.0 9.0 0.00 0.02 0.02 1015.8
20260507015912 140 1 9.0 10.0 0.00 0.02 0.02 1015.8
20260507015410 140 5 9.0 11.0 0.00 0.02 0.02 1015.8
20260507014907 140 5 13.0 15.0 0.00 0.02 0.02 1015.7
20260507014403 140 3 2.0 5.0 0.00 0.02 0.02 1015.8
20260507013859 140 6 6.0 7.0 0.00 0.02 0.02 1015.6
20260507013356 140 350 7.0 8.0 0.00 0.02 0.02 1015.6
20260507012854 140 349 7.0 8.0 0.00 0.02 0.02 1015.2
20260507012350 140 11 8.0 9.0 0.00 0.02 0.02 1015.2
20260507011847 140 22 8.0 9.0 0.00 0.02 0.02 1015.1
20260507011344 140 20 8.0 10.0 0.00 0.02 0.02 1014.9
20260507010844 140 319 7.0 8.0 0.00 0.02 0.02 1014.8
20260507010339 140 8 5.0 6.0 0.00 0.02 0.02 1014.4
20260507005837 140 43 7.0 8.0 0.00 0.02 0.02 1014.8
20260507005333 140 354 7.0 9.0 0.00 0.02 0.02 1014.6
20260507004831 140 6 5.0 7.0 0.00 0.02 0.02 1014.7
20260507004328 140 340 8.0 9.0 0.00 0.02 0.02 1014.7
20260507003825 140 11 7.0 9.0 0.00 0.02 0.02 1014.4
20260507003321 140 12 8.0 10.0 0.00 0.02 0.02 1014.2
20260507002815 140 1 7.0 8.0 0.00 0.02 0.02 1014.1
20260507002312 140 336 9.0 11.0 0.00 0.02 0.02 1014.0
20260507001809 140 5 5.0 8.0 0.00 0.02 0.02 1014.0
20260507001306 140 10 7.0 8.0 0.00 0.02 0.02 1014.1
20260507000802 140 359 5.0 6.0 0.00 0.02 0.02 1013.9
20260507000259 140 9 11.0 13.0 0.00 0.02 0.02 1013.9
20260506235755 140 22 7.0 8.0 0.00 0.02 0.02 1014.0
20260506235251 140 16 6.0 9.0 0.00 0.02 0.02 1014.0
20260506234748 140 1 5.0 7.0 0.00 0.02 0.02 1014.0
20260506234245 140 21 5.0 8.0 0.00 0.02 0.02 1013.8
20260506233743 140 38 9.0 9.0 0.00 0.02 0.02 1013.7
20260506233239 140 42 8.0 9.0 0.00 0.02 0.02 1013.6
20260506232735 140 57 3.0 5.0 0.00 0.02 0.02 1013.4
20260506232230 140 19 9.0 10.0 0.00 0.02 0.02 1013.5
20260506231728 140 9 7.0 7.0 0.00 0.02 0.02 1013.5
20260506231226 140 340 5.0 6.0 0.00 0.02 0.02 1013.6
20260506230723 140 21 8.0 11.0 0.00 0.02 0.02 1013.4
20260506230219 140 38 8.0 9.0 0.00 0.02 0.02 1013.4
20260506225716 140 39 9.0 14.0 0.00 0.02 0.02 1013.5
20260506225213 140 338 8.0 8.0 0.00 0.02 0.02 1013.3
20260506224709 140 338 6.0 8.0 0.00 0.02 0.02 1013.4
20260506224207 140 309 6.0 8.0 0.00 0.02 0.02 1013.4
20260506223703 140 14 7.0 8.0 0.00 0.02 0.02 1013.3
20260506223158 140 0 11.0 13.0 0.00 0.02 0.02 1013.2
20260506222656 140 17 14.0 16.0 0.00 0.02 0.02 1013.1
20260506222151 140 8 8.0 9.0 0.00 0.02 0.02 1013.3
20260506221650 140 0 12.0 14.0 0.00 0.02 0.02 1013.2
20260506221147 140 16 9.0 11.0 0.00 0.02 0.02 1013.5
20260506220644 140 344 5.0 8.0 0.00 0.02 0.02 1013.1
20260506220139 140 331 3.0 6.0 0.00 0.02 0.02 1013.0
20260506215636 140 45 2.0 3.0 0.00 0.02 0.02 1013.1
20260506215131 140 350 4.0 6.0 0.00 0.02 0.02 1012.9
20260506214628 140 12 8.0 9.0 0.00 0.02 0.02 1013.3
20260506214126 140 331 7.0 8.0 0.00 0.02 0.02 1013.1
20260506213624 140 23 10.0 11.0 0.00 0.02 0.02 1013.2
20260506213121 140 342 1.0 2.0 0.00 0.02 0.02 1013.4
20260506212618 140 62 6.0 7.0 0.00 0.02 0.02 1013.1
20260506212113 140 60 5.0 6.0 0.00 0.02 0.02 1013.3
20260506211609 140 66 2.0 3.0 0.00 0.02 0.02 1013.4
20260506211106 140 113 0.0 0.0 0.00 0.02 0.02 1013.6
20260506210603 140 351 1.0 2.0 0.00 0.02 0.02 1013.5
20260506210059 140 309 2.0 3.0 0.00 0.02 0.02 1013.7
20260506205555 140 27 1.0 2.0 0.00 0.02 0.02 1013.6
20260506205045 140 5 8.0 10.0 0.00 0.02 0.02 1013.6
20260506204543 140 32 0.0 0.0 0.00 0.02 0.02 1013.6
20260506204040 140 349 0.0 2.0 0.00 0.02 0.02 1013.9
20260506203539 140 1 4.0 8.0 0.00 0.02 0.02 1013.9
20260506203034 140 344 3.0 6.0 0.00 0.02 0.02 1013.9
20260506202532 140 5 5.0 6.0 0.00 0.02 0.02 1013.9
20260506202028 140 358 4.0 8.0 0.00 0.02 0.02 1013.7
20260506201526 140 310 1.0 5.0 0.00 0.02 0.02 1014.1
20260506201022 140 68 4.0 5.0 0.00 0.02 0.02 1014.0
20260506200518 140 198 0.0 0.0 0.00 0.02 0.02 1014.2
20260506200015 140 22 2.0 5.0 0.00 0.02 0.02 1014.2
20260506195512 140 310 0.0 0.0 0.00 0.02 0.02 1014.6
20260506195008 140 310 1.0 3.0 0.00 0.02 0.02 1014.4
20260506194506 140 287 0.0 1.0 0.00 0.02 0.02 1014.7
20260506194002 140 307 0.0 0.0 0.00 0.02 0.02 1014.4
20260506193500 140 20 0.0 1.0 0.00 0.02 0.02 1014.7
20260506192956 140 21 0.0 0.0 0.00 0.02 0.02 1014.4
20260506192453 140 310 0.0 0.0 0.00 0.02 0.02 1014.9
20260506191944 140 27 0.0 0.0 0.00 0.02 0.02 1015.0
20260506191441 140 49 0.0 0.0 0.00 0.02 0.02 1015.2
20260506190937 140 34 1.0 1.0 0.00 0.02 0.02 1014.9
20260506190434 140 14 5.0 6.0 0.00 0.02 0.02 1015.2
20260506185931 140 355 4.0 5.0 0.00 0.02 0.02 1015.0
20260506185428 140 313 3.0 3.0 0.00 0.02 0.02 1015.5
20260506184925 140 16 7.0 8.0 0.00 0.02 0.02 1015.3
20260506184422 140 317 3.0 3.0 0.00 0.02 0.02 1015.2
20260506183919 140 321 4.0 6.0 0.00 0.02 0.02 1014.9
20260506183414 140 275 9.0 10.0 0.00 0.02 0.02 1014.9
20260506182912 140 11 10.0 13.0 0.00 0.02 0.02 1014.8
20260506182409 140 359 3.0 5.0 0.00 0.02 0.02 1015.0
20260506181907 140 15 9.0 11.0 0.00 0.02 0.02 1015.0
20260506181404 140 273 3.0 6.0 0.00 0.02 0.02 1014.8
20260506180901 140 347 5.0 9.0 0.00 0.02 0.02 1015.1
20260506180357 140 22 7.0 8.0 0.00 0.02 0.02 1014.9
20260506175854 140 16 8.0 11.0 0.00 0.02 0.02 1014.8
20260506175350 140 9 9.0 11.0 0.00 0.02 0.02 1014.9
20260506174847 140 14 11.0 14.0 0.00 0.02 0.02 1015.2
20260506174345 140 8 8.0 9.0 0.00 0.02 0.02 1015.1
20260506173843 140 349 6.0 9.0 0.00 0.02 0.02 1015.2
20260506173339 140 330 9.0 10.0 0.00 0.02 0.02 1015.6
20260506172836 140 344 6.0 8.0 0.00 0.02 0.02 1015.4
20260506172332 140 358 10.0 11.0 0.00 0.02 0.02 1015.4
20260506171824 140 18 8.0 9.0 0.00 0.02 0.02 1015.4
20260506171321 140 36 6.0 9.0 0.00 0.02 0.02 1015.2
20260506170819 140 344 9.0 10.0 0.00 0.02 0.02 1015.0
20260506170314 140 1 8.0 9.0 0.00 0.02 0.02 1015.4
20260506165814 140 359 12.0 13.0 0.00 0.02 0.02 1015.1
20260506165311 140 14 10.0 13.0 0.00 0.02 0.02 1014.9
20260506164808 140 11 11.0 13.0 0.00 0.02 0.02 1014.7
20260506164304 140 1 12.0 15.0 0.00 0.02 0.02 1014.8
20260506163801 140 359 10.0 14.0 0.00 0.02 0.02 1015.0
20260506163256 140 352 6.0 7.0 0.00 0.02 0.02 1015.2
20260506162752 140 25 11.0 15.0 0.00 0.02 0.02 1015.2
20260506162250 140 47 4.0 5.0 0.00 0.02 0.02 1015.0
20260506161747 140 343 8.0 11.0 0.00 0.02 0.02 1014.9
20260506161244 140 21 9.0 10.0 0.00 0.02 0.02 1015.1
20260506160741 140 352 10.0 11.0 0.00 0.02 0.02 1014.8
20260506160238 140 11 10.0 11.0 0.00 0.02 0.02 1014.6
20260506155737 140 8 9.0 11.0 0.00 0.02 0.02 1015.1
20260506155233 140 340 10.0 13.0 0.00 0.02 0.02 1014.9
20260506153341 140 10 9.0 11.0 0.00 0.02 0.02 1014.0
20260506152837 140 6 9.0 13.0 0.00 0.02 0.02 1014.4
20260506152335 140 343 7.0 8.0 0.00 0.02 0.02 1014.5
20260506151834 140 10 7.0 10.0 0.00 0.02 0.02 1014.4
20260506151330 140 357 10.0 13.0 0.00 0.02 0.02 1014.5
20260506150827 140 327 7.0 8.0 0.00 0.02 0.02 1014.9
20260506150324 140 2 7.0 8.0 0.00 0.02 0.02 1014.8
20260506145821 140 25 2.0 2.0 0.07 0.02 0.02 1015.1
20260506145317 140 58 0.0 0.0 0.07 0.02 0.02 1015.4
20260506144815 140 11 8.0 10.0 0.00 0.01 0.01 1015.4
20260506144311 140 339 12.0 14.0 0.07 0.01 0.01 1014.7
20260506143810 140 317 4.0 5.0 0.00 0.00 0.00 1016.7
20260506143306 140 296 2.0 3.0 0.00 0.00 0.00 1017.1
20260506142804 140 320 1.0 3.0 0.00 0.00 0.00 1016.6
20260506142305 140 249 0.0 0.0 0.00 0.00 0.00 1016.4
20260506141800 140 236 0.0 0.0 0.00 0.00 0.00 1016.4
20260506141258 140 288 4.0 7.0 0.00 0.00 0.00 1015.6
20260506140755 140 337 2.0 2.0 0.00 0.00 0.00 1015.0
20260506140252 140 6 12.0 15.0 0.00 0.00 0.00 1013.5
20260506135749 140 22 10.0 11.0 0.00 0.00 0.00 1014.2
20260506135245 140 353 8.0 9.0 0.00 0.00 0.00 1014.8
20260506134742 140 347 11.0 15.0 0.00 0.00 0.00 1014.7
20260506134239 140 11 14.0 18.0 0.00 0.00 0.00 1014.7
20260506133736 140 9 8.0 10.0 0.00 0.00 0.00 1015.1
20260506133232 140 342 8.0 10.0 0.00 0.00 0.00 1015.5
20260506132729 140 354 3.0 5.0 0.00 0.00 0.00 1015.2
20260506132227 140 304 3.0 3.0 0.00 0.00 0.00 1015.6
20260506131725 140 10 11.0 15.0 0.00 0.00 0.00 1015.6
20260506131220 140 7 5.0 10.0 0.00 0.00 0.00 1014.5
20260506130717 140 343 8.0 8.0 0.00 0.00 0.00 1014.0
20260506130214 140 25 9.0 10.0 0.00 0.00 0.00 1014.1
20260506125712 140 26 5.0 7.0 0.00 0.00 0.00 1014.0
20260506125210 140 10 8.0 11.0 0.00 0.00 0.00 1013.8
20260506124708 140 10 9.0 11.0 0.00 0.00 0.00 1013.7
20260506124206 140 358 8.0 9.0 0.00 0.00 0.00 1013.3
20260506123703 140 16 7.0 9.0 0.00 0.00 0.00 1013.1
20260506123202 140 346 12.0 20.0 0.00 0.00 0.00 1013.3
20260506122658 140 17 9.0 10.0 0.00 0.00 0.00 1013.1
20260506122155 140 356 11.0 14.0 0.00 0.00 0.00 1013.2
20260506121653 140 27 6.0 8.0 0.00 0.00 0.00 1013.3
20260506121149 140 343 7.0 8.0 0.00 0.00 0.00 1013.2
20260506120647 140 27 12.0 14.0 0.00 0.00 0.00 1013.2
20260506120144 140 17 12.0 14.0 0.00 0.00 0.00 1013.1
20260506115643 140 347 7.0 9.0 0.00 0.00 0.00 1012.7
20260506115140 140 285 6.0 8.0 0.00 0.00 0.00 1013.1
20260506114637 140 5 10.0 13.0 0.00 0.00 0.00 1013.2
20260506114135 140 352 7.0 10.0 0.00 0.00 0.00 1012.9
20260506113634 140 6 5.0 6.0 0.00 0.00 0.00 1013.2
20260506113130 140 318 10.0 14.0 0.00 0.00 0.00 1013.2
20260506112626 140 342 8.0 10.0 0.00 0.00 0.00 1012.8
20260506112124 140 335 8.0 11.0 0.00 0.00 0.00 1012.7
20260506111622 140 2 7.0 10.0 0.00 0.00 0.00 1012.6
20260506111119 140 318 6.0 8.0 0.00 0.00 0.00 1012.6
20260506110617 140 333 7.0 10.0 0.00 0.00 0.00 1012.3
20260506110114 140 317 4.0 6.0 0.00 0.00 0.00 1012.4
20260506105610 140 33 6.0 8.0 0.00 0.00 0.00 1012.1
20260506105107 140 341 7.0 10.0 0.00 0.00 0.00 1012.2
20260506104606 140 311 9.0 11.0 0.00 0.00 0.00 1011.8
20260506104103 140 17 6.0 8.0 0.00 0.00 0.00 1011.8
20260506103600 140 337 11.0 13.0 0.00 0.00 0.00 1011.7
20260506103056 140 320 10.0 14.0 0.00 0.00 0.00 1011.9
20260506102555 140 302 7.0 8.0 0.00 0.00 0.00 1011.8
20260506102052 140 348 11.0 13.0 0.00 0.00 0.00 1011.7